[[{"header":{"parameterUnit":"m.s-1","parameterCategory":1,"la1":30.2991,"la2":30.254,"lo1":-89.0895,"lo2":-89.0444,"dy":0.0017,"dx":0.0017,"nx":28,"ny":28,"refTime":"2024-05-01T03:00:00:Z","depth":0,"parameterNumber":2,"parameterNumberName":"U-component_of_WINDS"},"data":[0,0,0,0,0,0,0,0,0,0,0,0,0,0,0,0,0,0,0,0,0,0,0,0,0,0,0,0,0,0,0,0,0,0,0,0,0,0,0,0,0,0,0,0,0,0,0,0,0,0,0,0,0,0,0,0,0,0,-1.554,-1.554,0,-1.5499,-1.5499,-1.5498,-1.5465,-1.5465,-1.5464,-1.5464,-1.5419,-1.5418,-1.5417,0,0,0,0,0,0,0,0,0,0,0,0,0,-1.5589,-1.5588,-1.5541,-1.554,-1.554,-1.5499,-1.5499,-1.5498,-1.5465,-1.5465,-1.5464,-1.5464,-1.5419,-1.5418,-1.5417,0,0,0,0,0,0,0,0,0,0,0,0,0,-1.556,-1.5588,-1.5541,-1.5518,-1.5516,-1.5499,-1.5499,-1.5498,-1.5465,-1.5465,-1.5464,-1.5464,-1.542,-1.5418,-1.5417,-1.5419,0,0,-1.5413,-1.5412,0,0,0,0,0,0,0,0,-1.5562,-1.5558,-1.5522,-1.552,-1.5517,-1.5487,-1.5499,-1.5471,-1.5465,-1.5484,-1.5464,-1.5464,-1.5442,-1.5439,-1.5432,-1.5417,-1.5415,-1.5413,-1.5412,-1.5411,-1.5411,0,0,0,0,0,0,0,-1.5564,-1.556,-1.5524,-1.5522,-1.5519,-1.551,-1.5505,-1.5494,-1.5466,-1.5483,-1.548,-1.5476,-1.544,-1.5433,-1.5431,-1.5414,-1.5413,-1.5412,-1.5411,-1.541,-1.5398,-1.5398,0,0,0,0,0,0,-1.5569,-1.5562,-1.5525,-1.5523,-1.5539,-1.5509,-1.5504,-1.5497,-1.5466,-1.5461,-1.5476,-1.5475,-1.5436,-1.5432,-1.5429,-1.5429,-1.5411,-1.541,-1.5409,-1.5398,-1.5398,-1.5399,0,0,0,0,0,0,-1.5571,-1.5567,-1.5527,-1.5542,-1.5536,-1.5509,-1.5501,-1.5496,-1.5489,-1.5462,-1.5456,-1.5474,-1.5435,-1.5431,-1.5422,-1.5426,-1.541,-1.5408,-1.5397,-1.5398,-1.5398,-1.5428,0,0,0,0,0,0,-1.5572,-1.5567,-1.5568,-1.5542,-1.5535,-1.5521,-1.5502,-1.5496,-1.5487,-1.5485,-1.5458,-1.5453,-1.5435,-1.5424,-1.542,-1.5424,-1.5407,-1.5396,-1.5397,-1.5398,-1.5426,-1.543,-1.5432,0,0,0,0,0,-1.5574,-1.5577,-1.5568,-1.5564,-1.5536,-1.5522,-1.5518,-1.5497,-1.5488,-1.5488,-1.547,-1.5454,-1.5427,-1.5423,-1.5419,-1.5423,-1.5396,-1.5397,-1.5398,-1.5425,-1.5429,-1.5432,0,0,0,0,0,0,-1.5603,-1.5573,-1.5563,-1.5558,-1.5543,-1.5516,-1.5515,-1.5501,-1.5488,-1.5485,-1.5459,-1.5454,-1.5447,-1.5434,-1.5431,-1.5423,-1.5409,-1.541,-1.5431,-1.5435,-1.5438,-1.5441,-1.5406,0,0,0,0,0,-1.5609,-1.5601,-1.5575,-1.5573,-1.5566,-1.5542,-1.5535,-1.5521,-1.5504,-1.5497,-1.5478,-1.5462,-1.5449,-1.5441,-1.5429,-1.5425,-1.5418,-1.5425,-1.5428,-1.5431,-1.5431,-1.5428,-1.5431,-1.5402,-1.5402,-1.5402,0,0,-1.5621,-1.5604,-1.56,-1.5579,-1.5565,-1.5557,-1.5537,-1.5529,-1.5522,-1.5495,-1.5485,-1.5472,-1.5451,-1.5445,-1.5441,-1.5434,-1.5438,-1.5432,-1.5435,-1.5433,-1.543,-1.5432,-1.5435,-1.5403,-1.5403,-1.5403,0,0,-1.5639,-1.5625,-1.5622,-1.5609,-1.5589,-1.5574,-1.5573,-1.5549,-1.5539,-1.5529,-1.5509,-1.5501,-1.548,-1.5466,-1.5457,-1.547,-1.5455,-1.5467,-1.5482,-1.5479,-1.5482,-1.5484,-1.5488,-1.549,-1.5467,-1.5468,-1.5468,0,-1.5656,-1.5643,-1.5622,-1.5615,-1.5606,-1.5583,-1.5579,-1.5568,-1.5544,-1.5539,-1.5531,-1.5505,-1.549,-1.548,-1.5484,-1.5477,-1.5475,-1.5469,-1.5483,-1.5485,-1.5486,-1.549,-1.5492,-1.5469,-1.5469,-1.5469,-1.5469,0,-1.5664,-1.5656,-1.5656,-1.5635,-1.5626,-1.5621,-1.5599,-1.5592,-1.5579,-1.5564,-1.5555,-1.5536,-1.5519,-1.5516,-1.5502,-1.5504,-1.55,-1.5488,-1.5474,-1.5491,-1.5494,-1.5495,-1.5471,-1.5471,-1.547,-1.547,0,0,-1.5697,-1.5667,-1.5667,-1.5657,-1.5634,-1.5627,-1.5621,-1.5605,-1.56,-1.5585,-1.5579,-1.5563,-1.5552,-1.5541,-1.5526,-1.5524,-1.5536,-1.5512,-1.5511,-1.5517,-1.5536,-1.5545,-1.5547,-1.5526,-1.5526,-1.5526,-1.5538,0,-1.5711,-1.5699,-1.5681,-1.5675,-1.5666,-1.5645,-1.5639,-1.5625,-1.5611,-1.5601,-1.5586,-1.5575,-1.5561,-1.5555,-1.5552,-1.5535,-1.5539,-1.5534,-1.5519,-1.5518,-1.5524,-1.5549,-1.5557,-1.5569,-1.5539,-1.5539,-1.5539,0,-1.5724,-1.5712,-1.5705,-1.5683,-1.5679,-1.5675,-1.5659,-1.5651,-1.5633,-1.5623,-1.5612,-1.5596,-1.5588,-1.5576,-1.5565,-1.5562,-1.5555,-1.5545,-1.5545,-1.5542,-1.5529,-1.5545,-1.5572,-1.5574,-1.5541,-1.5541,-1.5541,0,-1.5748,-1.573,-1.5724,-1.5716,-1.5691,-1.5688,-1.5677,-1.566,-1.5652,-1.5638,-1.5633,-1.5618,-1.561,-1.5599,-1.5579,-1.5572,-1.5569,-1.5556,-1.556,-1.5561,-1.5559,-1.5559,-1.5585,-1.5557,-1.5557,-1.5556,-1.5556,0,-1.5765,-1.5761,-1.5734,-1.573,-1.5726,-1.5705,-1.5701,-1.5688,-1.5673,-1.5666,-1.5647,-1.564,-1.5615,-1.5605,-1.559,-1.5582,-1.5579,-1.557,-1.5566,-1.5571,-1.5572,-1.5565,-1.5564,-1.5557,-1.5557,-1.5557,-1.5557,0,-1.579,-1.5772,-1.5764,-1.5741,-1.5735,-1.5733,-1.5713,-1.5708,-1.5694,-1.5685,-1.5682,-1.5659,-1.5647,-1.5627,-1.5608,-1.5598,-1.5593,-1.5586,-1.5599,-1.5596,-1.5602,-1.5601,-1.5623,-1.5624,-1.5596,-1.5596,-1.5596,0,-1.5802,-1.5799,-1.5776,-1.577,-1.576,-1.5751,-1.5743,-1.5723,-1.5715,-1.5696,-1.5693,-1.568,-1.5668,-1.565,-1.5631,-1.5617,-1.5609,-1.5618,-1.5607,-1.5613,-1.5608,-1.5609,-1.5608,-1.562,-1.562,-1.5621,-1.5621,0,-1.5823,-1.5815,-1.5804,-1.5791,-1.5782,-1.5771,-1.5758,-1.5754,-1.5731,-1.5723,-1.5711,-1.5702,-1.5684,-1.5671,-1.5654,-1.5642,-1.5627,-1.5625,-1.5625,-1.563,-1.5637,-1.5633,-1.5605,-1.5624,-1.5624,-1.5623,-1.5623,-1.5623,-1.5841,-1.5838,-1.5822,-1.5811,-1.5799,-1.5788,-1.5783,-1.5768,-1.5758,-1.5742,-1.5731,-1.5719,-1.5702,-1.5679,-1.5668,-1.5658,-1.5652,-1.5652,-1.5652,-1.5652,-1.5654,-1.564,-1.5655,-1.5655,-1.5655,-1.5655,-1.5655,0,-1.5862,-1.585,-1.5841,-1.5824,-1.5816,-1.5804,-1.5789,-1.5783,-1.5773,-1.5759,-1.5748,-1.5734,-1.5722,-1.5703,-1.5688,-1.5684,-1.5677,-1.5681,-1.5681,-1.5678,-1.5661,-1.5662,-1.5687,-1.5687,-1.5687,-1.5687,-1.5687,-1.5687,-1.5871,-1.5865,-1.5854,-1.5842,-1.583,-1.582,-1.5812,-1.5802,-1.579,-1.5776,-1.5766,-1.5754,-1.5737,-1.5722,-1.571,-1.5704,-1.5699,-1.5706,-1.5698,-1.5682,-1.5679,-1.5676,-1.5677,-1.5705,-1.5705,-1.5716,-1.5716,-1.5716]},{"header":{"parameterUnit":"m.s-1","parameterCategory":1,"la1":30.2991,"la2":30.254,"lo1":-89.0895,"lo2":-89.0444,"dy":0.0017,"dx":0.0017,"nx":28,"ny":28,"refTime":"2024-05-01T03:00:00:Z","depth":0,"parameterNumber":3,"parameterNumberName":"V-component_of_WINDS"},"data":[0,0,0,0,0,0,0,0,0,0,0,0,0,0,0,0,0,0,0,0,0,0,0,0,0,0,0,0,0,0,0,0,0,0,0,0,0,0,0,0,0,0,0,0,0,0,0,0,0,0,0,0,0,0,0,0,0,0,2.4394,2.4394,0,2.4381,2.4381,2.4381,2.437,2.437,2.437,2.437,2.4353,2.4353,2.4353,0,0,0,0,0,0,0,0,0,0,0,0,0,2.4408,2.4407,2.4394,2.4394,2.4394,2.4381,2.4381,2.4381,2.437,2.437,2.437,2.437,2.4353,2.4353,2.4353,0,0,0,0,0,0,0,0,0,0,0,0,0,2.4399,2.4407,2.4394,2.4387,2.4386,2.4381,2.4381,2.4381,2.437,2.437,2.437,2.437,2.4354,2.4353,2.4353,2.4353,0,0,2.4351,2.4351,0,0,0,0,0,0,0,0,2.4399,2.4398,2.4388,2.4388,2.4387,2.4377,2.438,2.4371,2.437,2.4376,2.437,2.437,2.4361,2.436,2.4358,2.4352,2.4351,2.4351,2.4351,2.4351,2.435,0,0,0,0,0,0,0,2.44,2.4399,2.4389,2.4388,2.4387,2.4384,2.4382,2.4378,2.437,2.4376,2.4375,2.4374,2.4361,2.4358,2.4357,2.4351,2.4351,2.4351,2.435,2.435,2.4347,2.4347,0,0,0,0,0,0,2.4402,2.44,2.439,2.4389,2.4393,2.4384,2.4382,2.438,2.437,2.4368,2.4374,2.4373,2.4359,2.4358,2.4357,2.4358,2.4351,2.435,2.435,2.4346,2.4347,2.4347,0,0,0,0,0,0,2.4402,2.4401,2.439,2.4394,2.4392,2.4384,2.4382,2.438,2.4378,2.4368,2.4367,2.4373,2.4359,2.4358,2.4355,2.4357,2.435,2.4349,2.4346,2.4346,2.4347,2.4358,0,0,0,0,0,0,2.4403,2.4402,2.4402,2.4394,2.4392,2.4389,2.4382,2.438,2.4378,2.4377,2.4367,2.4366,2.4359,2.4355,2.4354,2.4356,2.4349,2.4346,2.4346,2.4347,2.4358,2.4359,2.436,0,0,0,0,0,2.4403,2.4405,2.4402,2.4401,2.4393,2.4389,2.4387,2.4381,2.4378,2.4378,2.4372,2.4366,2.4357,2.4355,2.4354,2.4355,2.4346,2.4346,2.4347,2.4357,2.4359,2.436,0,0,0,0,0,0,2.4411,2.4403,2.44,2.4399,2.4395,2.4387,2.4387,2.4382,2.4378,2.4377,2.4368,2.4366,2.4364,2.4359,2.4358,2.4356,2.435,2.4351,2.4359,2.4361,2.4362,2.4363,2.4349,0,0,0,0,0,2.4413,2.4412,2.4404,2.4404,2.4402,2.4395,2.4393,2.4389,2.4383,2.4381,2.4375,2.4369,2.4365,2.4362,2.4358,2.4357,2.4355,2.4358,2.4359,2.436,2.436,2.4361,2.4362,2.4348,2.4348,2.4348,0,0,2.4416,2.4412,2.4411,2.4406,2.4402,2.44,2.4393,2.4391,2.439,2.438,2.4378,2.4373,2.4366,2.4365,2.4364,2.436,2.4364,2.4361,2.4362,2.4361,2.4361,2.4363,2.4364,2.4349,2.4349,2.4349,0,0,2.4422,2.4418,2.4418,2.4415,2.441,2.4405,2.4405,2.4398,2.4396,2.4393,2.4386,2.4384,2.4377,2.4373,2.437,2.4376,2.437,2.4375,2.4381,2.4381,2.4383,2.4383,2.4386,2.4387,2.4375,2.4375,2.4375,0,2.4426,2.4424,2.4418,2.4417,2.4415,2.4408,2.4408,2.4405,2.4398,2.4397,2.4394,2.4387,2.4381,2.4379,2.4381,2.4379,2.4379,2.4376,2.4383,2.4384,2.4385,2.4387,2.4388,2.4376,2.4376,2.4376,2.4375,0,2.443,2.4429,2.4429,2.4425,2.4423,2.4422,2.4416,2.4415,2.4411,2.4407,2.4405,2.4399,2.4394,2.4393,2.4388,2.4391,2.4389,2.4385,2.4379,2.4387,2.4389,2.439,2.4377,2.4376,2.4376,2.4376,0,0,2.4438,2.4433,2.4433,2.4432,2.4426,2.4425,2.4424,2.4421,2.4421,2.4416,2.4416,2.4411,2.4408,2.4404,2.4399,2.44,2.4406,2.4395,2.4395,2.4398,2.441,2.4414,2.4415,2.4403,2.4403,2.4403,2.4411,0,2.4443,2.4443,2.4439,2.4439,2.4439,2.4433,2.4433,2.4429,2.4426,2.4424,2.442,2.4417,2.4412,2.441,2.441,2.4405,2.4408,2.4405,2.4402,2.4402,2.4404,2.4416,2.4419,2.4427,2.4411,2.4411,2.4412,0,2.4448,2.4447,2.4448,2.4445,2.4444,2.4444,2.4441,2.444,2.4436,2.4434,2.4431,2.4426,2.4425,2.442,2.4419,2.4417,2.4415,2.4413,2.4413,2.4413,2.4407,2.4416,2.4429,2.443,2.4413,2.4413,2.4413,0,2.4455,2.4453,2.4454,2.4453,2.4449,2.4449,2.4447,2.4443,2.4442,2.444,2.4439,2.4436,2.4434,2.4432,2.4426,2.4423,2.4426,2.442,2.4424,2.4424,2.4425,2.4425,2.4438,2.4423,2.4423,2.4423,2.4423,0,2.4461,2.4462,2.4458,2.4458,2.446,2.4455,2.4456,2.4453,2.4451,2.445,2.4445,2.4444,2.4437,2.4436,2.4431,2.4432,2.4431,2.4429,2.4428,2.4429,2.443,2.4428,2.4428,2.4424,2.4424,2.4424,2.4424,0,2.4469,2.4466,2.4467,2.4463,2.4463,2.4464,2.4461,2.4461,2.4458,2.4458,2.4458,2.4452,2.4451,2.4446,2.4442,2.4439,2.4441,2.4439,2.4443,2.4442,2.4447,2.4447,2.4459,2.4461,2.4445,2.4445,2.4446,0,2.4473,2.4474,2.4472,2.4472,2.4471,2.4471,2.447,2.4466,2.4466,2.4463,2.4463,2.4462,2.4461,2.4459,2.4454,2.4452,2.445,2.4455,2.4449,2.4452,2.4451,2.4451,2.4451,2.4456,2.4456,2.4456,2.4456,0,2.448,2.4479,2.4479,2.448,2.448,2.4479,2.4478,2.4478,2.4474,2.4473,2.4473,2.4472,2.447,2.4469,2.4467,2.4464,2.4459,2.4458,2.4459,2.4461,2.4464,2.4463,2.4447,2.4458,2.4457,2.4457,2.4457,2.4457,2.4486,2.4488,2.4487,2.4488,2.4487,2.4487,2.4488,2.4486,2.4486,2.4485,2.4482,2.4482,2.448,2.4476,2.4474,2.4474,2.4471,2.4472,2.4473,2.4473,2.4475,2.4464,2.4474,2.4474,2.4473,2.4473,2.4473,0,2.4494,2.4494,2.4495,2.4495,2.4496,2.4493,2.4493,2.4493,2.4494,2.4493,2.4492,2.4492,2.4492,2.4488,2.4487,2.4488,2.4486,2.4488,2.4487,2.4487,2.4477,2.4476,2.4489,2.4489,2.4489,2.4489,2.4489,2.4489,2.4498,2.4501,2.4501,2.4503,2.4503,2.4504,2.4504,2.4504,2.4503,2.4504,2.4504,2.4503,2.4501,2.45,2.4499,2.4498,2.4498,2.4501,2.4499,2.4489,2.4488,2.4486,2.4486,2.4501,2.4501,2.451,2.451,2.451]}]]